Home > Weather > Hilversum > Past weeks

Flag for Netherlands Past Weather in Hilversum, Netherlands — Yesterday and Last 2 Weeks

Now
68 °F

Overcast.


Feels Like: 68 °F
Forecast: 56 / 69 °F
Wind: 5 mph from Southwest

Location: De Bilt

Current Time: Jul 29, 2016 at 4:13:27 PM

Latest Report: Jul 29, 2016 at 3:00 PM


Visibility: 19 mi

Pressure: 29.85 "Hg

Humidity: 75%

Dew Point: 60 °F

Location of HilversumLocation

Past Weather in Hilversum — Graph

°F

Hilversum Temperature Yesterday

Maximum temperature yesterday: 74 °F (at 2:00 PM)
Minimum temperature yesterday: 61 °F (at 5:00 AM)
Average temperature yesterday: 66 °F

High & Low Weather Summary for the Past Weeks

 TemperatureHumidityPressure
High90 °F (Jul 20, 3:00 PM)100% (Jul 18, 7:00 AM)30.28 "Hg (Jul 18, 7:00 AM)
Low49 °F (Jul 15, 6:00 AM)37% (Jul 18, 8:00 PM)29.82 "Hg (Jul 20, 5:00 PM)
Average68 °F77%30.08 "Hg
* Reported Jul 14 3:00 PM — Jul 29 3:00 PM, Hilversum, Weather by CustomWeather, © 2016

Note: Actual official high and low records may vary slightly from our data, if they occured in-between our weather recording intervals... More about our weather records

Advertising

Hilversum Weather History for the Previous 24 Hours

Scroll right to see more
 ConditionsComfort  
Time TempWeatherWind HumidityBarometerVisibility
3:00 PM
Fri, Jul 29
68 °FOvercast.5 mph75%29.85 "Hg19 mi
2:00 PM69 °FOvercast.5 mph77%29.85 "Hg17 mi
1:00 PM68 °FOvercast.6 mph78%29.85 "Hg14 mi
12:00 PM67 °FLow clouds.5 mph85%29.85 "Hg11 mi
11:00 AM64 °FRain showers. Low clouds.5 mph97%29.86 "Hg3 mi
10:00 AM66 °FLow clouds.3 mph88%29.85 "Hg7 mi
9:00 AM65 °FLow clouds.5 mph90%29.86 "Hg8 mi
8:00 AM64 °FLow clouds.3 mph92%29.86 "Hg6 mi
7:00 AM62 °FLow clouds.3 mph95%29.87 "Hg4 mi
6:00 AM62 °FRain. Low clouds.3 mph97%29.87 "Hg2 mi
5:00 AM61 °FFog.2 mph96%29.87 "Hg4 mi
2:00 AM61 °FOvercast.3 mph90%29.91 "Hg19 mi
11:00 PM
Thu, Jul 28
64 °FRain showers. Overcast.3 mph83%29.92 "Hg7 mi
10:00 PM65 °FOvercast.2 mph82%29.93 "Hg9 mi
8:00 PM69 °FOvercast.6 mph72%29.91 "Hg17 mi
6:00 PM71 °FOvercast.5 mph71%29.91 "Hg16 mi
5:00 PM73 °FOvercast.6 mph67%29.91 "Hg11 mi
Weather by CustomWeather, © 2016

See weather overviewHow to use our weather pages